Regional Weather Roundup
Issued by NWS

Home | Current Version | Previous Version | Text Only | Print | Product List | Glossary On
Versions: 1 2 3 4 5 6 7 8 9 10 11 12 13 14 15 16 17 18 19 20 21 22 23 24 25 26 27 28 29 30 31 32 33 34 35 36 37 38 39 40 41 42 43 44 45 46 47 48 49 50
000
ASUS43 KFSD 310510
RWRSD

WEATHER ROUNDUP FOR SOUTH DAKOTA
NATIONAL WEATHER SERVICE SIOUX FALLS SD
1200 AM CDT SUN JUL 31 2016

NOTE: "FAIR" INDICATES FEW OR NO CLOUDS BELOW 12,000 FEET WITH NO
SIGNIFICANT WEATHER AND/OR OBSTRUCTIONS TO VISIBILITY.


SDZ001>005-009-010-012>017-310600-
NORTHWEST AND NORTH CENTRAL SOUTH DAKOTA

CITY           SKY/WX    TMP DP  RH WIND       PRES   REMARKS
BUFFALO          N/A     72  57  59 S9        29.74R
FAITH            N/A     73  60  63 SE20      29.82R
MOBRIDGE       CLEAR     70  63  78 S10G22    29.82R
$$

SDZ012>016-024>037-041>051-057-063-072>074-310600-
SOUTHWEST AND SOUTH CENTRAL SOUTH DAKOTA

CITY           SKY/WX    TMP DP  RH WIND       PRES   REMARKS
RAPID CTY ARPT CLOUDY    63  60  90 E3        29.86F
PIERRE         CLOUDY    72  67  84 S9G20     29.81F
CUSTER         CLOUDY    57  53  86 NE6       30.01F
ELLSWORTH AFB  LGT RAIN  64  63  94 SE2       29.86
PHILIP         TSTM      74  63  68 SE24G32   29.82F
PINE RIDGE     CLOUDY    63  61  93 E16G24    29.97F
WINNER         FAIR      73  68  84 SE10      29.89R
$$

SDZ004>011-016>023-039-040-310600-
NORTHEAST SOUTH DAKOTA

CITY           SKY/WX    TMP DP  RH WIND       PRES   REMARKS
ABERDEEN       CLEAR     68  60  75 SE10      29.87F
WATERTOWN      CLEAR     68  58  70 SE9       29.94F
BROOKINGS      CLOUDY    66  59  78 SE9       29.95F
SISSETON         N/A     61  58  90 S6        29.92F
$$

SDZ017-020-022-023-036>040-048>070-310600-
SOUTHEAST SOUTH DAKOTA

CITY           SKY/WX    TMP DP  RH WIND       PRES   REMARKS
SIOUX FALLS    CLOUDY    71  60  68 SE9       29.95F
HURON          CLOUDY    73  62  68 SE10      29.89S
CHAMBERLAIN    CLOUDY    74  68  79 SE15      29.87S
MITCHELL       CLOUDY    75  62  64 SE13      29.90S
YANKTON        CLOUDY    70  63  78 SE7       29.92F
$$

ABBREVIATIONS USED IN REMARKS
   TC - TEMPERATURE IN CELSIUS
  WCI - WIND CHILL INDEX
   HX - HEAT INDEX
  VSB - VISIBILITY





USA.gov is the U.S. government's official web portal to all federal, state and local government web resources and services.